FW5669 Weather Reports


time (UTC)temp
C
wind
direction
speed
KPH
gust
KPH
rain 1hr
cm
rain 24hr
cm
rain mn
cm
humidity
%
barometer
mb
20260903004502 22 185 4.8 12.9 0.00 0.00 0.00 52 1017.2
20260903003003 22 158 3.2 8.0 0.00 0.00 0.00 52 1017.4
20260903001504 22 193 0.0 6.4 0.00 0.00 0.00 51 1017.6
20260903000105 22 191 3.2 11.3 0.00 0.00 0.00 49 1017.5
20260902234501 22 115 0.0 4.8 0.00 0.00 0.00 50 1017.6
20260902233004 22 206 3.2 9.7 0.00 0.00 0.00 49 1017.6
20260902231502 22 88 3.2 6.4 0.00 0.00 0.00 49 1017.6
20260902230002 22 216 3.2 8.0 0.00 0.00 0.00 50 1017.9
20260902224505 22 147 1.6 9.7 0.00 0.00 0.00 53 1018.2
20260902223004 21 201 1.6 4.8 0.00 0.00 0.00 55 1018.3
20260902221502 21 74 1.6 8.0 0.00 0.00 0.00 56 1018.4
20260902220007 22 140 1.6 11.3 0.00 0.00 0.00 55 1018.6
20260902214509 21 211 1.6 6.4 0.00 0.00 0.00 57 1018.6
20260902213005 21 237 1.6 6.4 0.00 0.00 0.00 57 1018.9
20260902211501 21 158 3.2 8.0 0.00 0.00 0.00 58 1018.8
20260902210003 21 195 3.2 6.4 0.00 0.00 0.00 59 1018.8
20260902204503 21 185 3.2 9.7 0.00 0.00 0.00 57 1018.8
20260902203002 21 193 1.6 8.0 0.00 0.00 0.00 59 1019.0
20260902201504 20 221 0.0 9.7 0.00 0.00 0.00 60 1019.1
20260902200003 20 188 3.2 8.0 0.00 0.00 0.00 60 1019.3
20260902194503 20 149 3.2 6.4 0.00 0.00 0.00 59 1019.3
20260902193002 20 198 1.6 8.0 0.00 0.00 0.00 59 1019.4
20260902191505 20 220 1.6 11.3 0.00 0.00 0.00 60 1019.5
20260902190003 20 227 1.6 8.0 0.00 0.00 0.00 58 1019.7
20260902184502 20 188 3.2 6.4 0.00 0.00 0.00 59 1019.6
20260902183003 19 85 1.6 6.4 0.00 0.00 0.00 62 1019.5
20260902181502 19 77 1.6 8.0 0.00 0.00 0.00 61 1019.5
20260902180005 19 122 1.6 6.4 0.00 0.00 0.00 61 1019.6
20260902174505 19 145 1.6 9.7 0.00 0.00 0.00 62 1019.6
20260902173002 18 157 3.2 6.4 0.00 0.00 0.00 62 1019.6
20260902171503 18 191 1.6 4.8 0.00 0.00 0.00 63 1019.4
20260902170002 18 143 1.6 6.4 0.00 0.00 0.00 63 1019.3
20260902164506 17 166 1.6 9.7 0.00 0.00 0.00 63 1019.3
20260902163002 17 62 4.8 11.3 0.00 0.00 0.00 60 1019.1
20260902161503 17 60 3.2 9.7 0.00 0.00 0.00 61 1019.1
20260902160002 17 116 3.2 12.9 0.00 0.00 0.00 62 1019.3
20260902154502 16 138 1.6 4.8 0.00 0.00 0.00 68 1019.3
20260902153002 14 37 1.6 9.7 0.00 0.00 0.00 71 1019.2
20260902151502 13 60 1.6 6.4 0.00 0.00 0.00 73 1019.1
20260902150003 13 68 1.6 4.8 0.00 0.00 0.00 74 1019.0
20260902144502 13 37 1.6 6.4 0.00 0.00 0.00 76 1018.8
20260902143001 13 93 3.2 9.7 0.00 0.00 0.00 77 1018.7
20260902141505 12 54 0.0 3.2 0.00 0.00 0.00 79 1018.8
20260902140003 12 68 1.6 6.4 0.00 0.00 0.00 79 1018.7
20260902134504 12 28 3.2 6.4 0.00 0.00 0.00 80 1018.7
20260902133003 12 51 3.2 11.3 0.00 0.00 0.00 80 1018.4
20260902131502 12 36 0.0 3.2 0.00 0.00 0.00 81 1018.2
20260902130002 12 25 0.0 3.2 0.00 0.00 0.00 81 1018.3
20260902124503 12 63 0.0 4.8 0.00 0.00 0.00 80 1018.3
20260902123001 12 60 1.6 4.8 0.00 0.00 0.00 81 1018.1
20260902121504 12 33 0.0 4.8 0.00 0.00 0.00 80 1018.2
20260902120002 12 19 1.6 4.8 0.00 0.00 0.00 80 1018.2
20260902114502 12 42 1.6 4.8 0.00 0.00 0.00 80 1018.2
20260902113108 12 61 0.0 4.8 0.00 0.00 0.00 80 1018.1
20260902111604 12 52 1.6 4.8 0.00 0.00 0.00 81 1018.1
20260902110100 12 46 1.6 4.8 0.00 0.00 0.00 80 1018.2
20260902103007 12 55 0.0 4.8 0.00 0.00 0.00 79 1018.3
20260902101501 12 55 0.0 4.8 0.00 0.00 0.00 79 1018.6
20260902100002 13 47 0.0 6.4 0.00 0.00 0.00 79 1018.5
20260902094503 13 36 1.6 4.8 0.00 0.00 0.00 78 1018.6
20260902093117 13 44 0.0 4.8 0.00 0.00 0.00 78 1018.6
20260902091502 13 43 1.6 3.2 0.00 0.00 0.00 78 1018.7
20260902090002 13 30 0.0 6.4 0.00 0.00 0.00 78 1018.5
20260902084508 13 31 1.6 4.8 0.00 0.00 0.00 77 1018.5
20260902083002 13 98 0.0 6.4 0.00 0.00 0.00 77 1018.5
20260902081503 13 49 1.6 4.8 0.00 0.00 0.00 76 1018.3
20260902080002 13 68 1.6 4.8 0.00 0.00 0.00 75 1018.2
20260902074502 13 63 1.6 4.8 0.00 0.00 0.00 75 1018.1
20260902073003 13 87 1.6 4.8 0.00 0.00 0.00 74 1018.1
20260902071506 14 69 3.2 6.4 0.00 0.00 0.00 74 1018.1
20260902070003 14 114 1.6 6.4 0.00 0.00 0.00 73 1018.1
20260902064501 14 51 3.2 9.7 0.00 0.00 0.00 73 1018.2
20260902063002 14 88 1.6 6.4 0.00 0.00 0.00 72 1018.3
20260902061507 15 144 1.6 4.8 0.00 0.00 0.00 71 1018.4
20260902060103 15 37 1.6 9.7 0.00 0.00 0.00 70 1018.4
20260902054505 15 63 1.6 9.7 0.00 0.00 0.00 69 1018.3
20260902053002 15 81 1.6 4.8 0.00 0.00 0.00 69 1018.3
20260902051502 15 60 1.6 6.4 0.00 0.00 0.00 68 1018.3
20260902044502 15 138 1.6 3.2 0.00 0.00 0.00 64 1018.2
20260902043005 16 147 0.0 0.0 0.00 0.00 0.00 63 1018.1
20260902041502 16 141 0.0 1.6 0.00 0.00 0.00 62 1017.8
20260902040006 16 173 0.0 1.6 0.00 0.00 0.00 60 1017.6
20260902034616 16 160 0.0 3.2 0.00 0.00 0.00 59 1017.2
20260902033003 17 168 1.6 4.8 0.00 0.00 0.00 58 1017.2
20260902031503 17 157 0.0 4.8 0.00 0.00 0.00 57 1016.7
20260902024502 18 183 0.0 4.8 0.00 0.00 0.00 54 1016.2
20260902023002 18 206 1.6 8.0 0.00 0.00 0.00 52 1016.2
20260902021507 19 175 1.6 4.8 0.00 0.00 0.00 49 1015.9
20260902020003 20 170 0.0 4.8 0.00 0.00 0.00 48 1016.0
20260902014503 20 187 1.6 8.0 0.00 0.00 0.00 45 1015.8
20260902013003 20 143 1.6 4.8 0.00 0.00 0.00 45 1015.8
20260902011503 21 135 3.2 6.4 0.00 0.00 0.00 44 1015.8
20260902010105 21 183 1.6 4.8 0.00 0.00 0.00 42 1015.9